Weather History for Guatemala Aeropuertola Aurora, Guatemala

Change the Weather History Date:

Saturday, August 10, 2013

  Actual Average Record
Temperature  
Mean Temperature 68 °F -  
Max Temperature 77 °F 75 °F - ()
Min Temperature 59 °F 60 °F - ()
Cooling Degree Days 3    
Growing Degree Days 18 (Base 50)    
Moisture  
Dew Point 61 °F    
Average Humidity 83    
Maximum Humidity 94    
Minimum Humidity 53    
Precipitation  
Precipitation 0.00 in - - ()
Sea Level Pressure  
Sea Level Pressure 30.23 in    
Wind  
Wind Speed 7 mph ()    
Max Wind Speed 12 mph    
Max Gust Speed -    
Visibility 5.8 miles    
Events Rain , Thunderstorm    
T = Trace of Precipitation, MM = Missing Value Source: Averaged Metar Reports

Daily Weather History Graph

Daily Weather History Graph

Search for Another Location

Airport:

Trip Planner

Search our weather history database for the weather conditions in past years. The results will help you decide how hot, cold, wet, or windy it might be!

Date:

Astronomy

Aug. 10, 2013 Rise Set
Actual Time 5:47 AM CST 6:27 PM CST
Civil Twilight 5:25 AM CST 6:49 PM CST
Nautical Twilight 4:58 AM CST 7:15 PM CST
Astronomical Twilight 4:32 AM CST 7:42 PM CST
Moon 8:47 AM CST (8/10) 9:00 PM CST (8/10)
Length of Visible Light 13h 24m
Length of Day
12h 39m
Waxing Crescent, 14% of the Moon is Illuminated
Aug 10
Waxing Crescent
Aug 14
First Quarter
Aug 20
Full
Aug 28
Last Quarter
Sep 5
New

Hourly Weather History & Observations

Time (CST) Temp. Dew Point Humidity Pressure Visibility Wind Dir Wind Speed Gust Speed Precip Events Conditions
12:00 AM 64.4 °F 62.6 °F 94% 30.30 in 6.2 mi North 4.6 mph - N/A   Scattered Clouds
1:00 AM 62.6 °F 60.8 °F 94% 30.27 in 6.2 mi North 5.8 mph - N/A   Scattered Clouds
2:00 AM 62.6 °F 60.8 °F 94% 30.24 in 6.2 mi NNE 11.5 mph - N/A   Scattered Clouds
3:00 AM 62.6 °F 60.8 °F 94% 30.24 in 6.2 mi NNE 6.9 mph - N/A   Scattered Clouds
4:00 AM 60.8 °F 59.0 °F 94% 30.24 in 6.2 mi NE 6.9 mph - N/A   Scattered Clouds
5:00 AM 60.8 °F 59.0 °F 94% 30.24 in - NNE 6.9 mph - N/A   Clear
6:00 AM 62 °F 59 °F 85% 29.95 in 25 mi NNE 6.9 mph - -   Overcast
6:00 AM 60.8 °F 59.0 °F 94% 30.24 in 6.2 mi NNE 6.9 mph - N/A   Mostly Cloudy
7:00 AM 62.6 °F 59.0 °F 88% 30.27 in 6.2 mi NNE 9.2 mph - N/A   Partly Cloudy
9:00 AM 69.8 °F 59.0 °F 68% 30.27 in 6.2 mi North 6.9 mph - N/A   Partly Cloudy
10:00 AM 73.4 °F 60.8 °F 65% 30.27 in 6.2 mi NNE 9.2 mph - N/A   Scattered Clouds
11:00 AM 75.2 °F 60.8 °F 61% 30.27 in 6.2 mi North 9.2 mph - N/A   Mostly Cloudy
12:00 PM 76 °F 62 °F 53% 29.93 in 25 mi North 9.2 mph - -   Overcast
12:00 PM 77.0 °F 62.6 °F 61% 30.27 in 6.2 mi North 9.2 mph - N/A   Scattered Clouds
1:00 PM 77.0 °F 62.6 °F 61% 30.24 in 6.2 mi North 11.5 mph - N/A   Partly Cloudy
2:00 PM 77.0 °F 60.8 °F 57% 30.21 in 6.2 mi North 9.2 mph - N/A   Scattered Clouds
2:10 PM - - N/A% - 4.3 mi NNE 9.2 mph - N/A Thunderstorm Thunderstorm
2:30 PM - - N/A% - 4.3 mi SSE 9.2 mph - N/A Thunderstorm Thunderstorm
2:42 PM - - N/A% - 4.3 mi South 11.5 mph - N/A Rain , Thunderstorm Light Thunderstorms and Rain
3:00 PM 69.8 °F 66.2 °F 88% 30.21 in 6.2 mi South 9.2 mph - N/A Thunderstorm Thunderstorm
3:30 PM - - N/A% - 3.7 mi South 6.9 mph - N/A Thunderstorm Thunderstorm
4:00 PM 68.0 °F 62.6 °F 83% 30.21 in 3.7 mi North - - N/A Thunderstorm Thunderstorm
5:00 PM 64.4 °F 62.6 °F 94% 30.21 in 6.2 mi South 6.9 mph - N/A   Mostly Cloudy
6:00 PM 64.4 °F 62.6 °F 94% 30.21 in 6.2 mi South 6.9 mph - N/A   Mostly Cloudy
7:00 PM 64.4 °F 60.8 °F 88% 30.24 in 6.2 mi SW 4.6 mph - N/A   Mostly Cloudy
8:00 PM 64.4 °F 62.6 °F 94% 30.27 in 6.2 mi Calm Calm - N/A   Mostly Cloudy
9:00 PM 64.4 °F 62.6 °F 94% 30.30 in - Calm Calm - N/A   Clear
10:00 PM 64.4 °F 62.6 °F 94% 30.30 in 6.2 mi NNE 4.6 mph - N/A   Mostly Cloudy
11:00 PM 66.2 °F 62.6 °F 88% 30.30 in 6.2 mi North 9.2 mph - N/A   Scattered Clouds